Regional Weather Roundup
Issued by NWS

Home | Current Version | Previous Version | Text Only | Print | Product List | Glossary On
Versions: 1 2 3 4 5 6 7 8 9 10 11 12 13 14 15 16 17 18 19 20 21 22 23 24 25 26 27 28 29 30 31 32 33 34 35 36 37 38 39 40 41 42 43 44 45 46 47 48 49 50
000
ASUS43 KDTX 102110
RWRMI
MICHIGAN HOURLY REGIONAL WEATHER ROUNDUP
NATIONAL WEATHER SERVICE DETROIT/PONTIAC MI
ISSUED BY NATIONAL WEATHER SERVICE GRAND RAPIDS MI
400 PM EST SAT DEC 10 2016

NOTE: "FAIR" INDICATES FEW OR NO CLOUDS BELOW 12,000 FEET WITH NO
SIGNIFICANT WEATHER AND/OR OBSTRUCTION TO VISIBILITY.

MIZ047>049-052>055-059>063-066>070-074>076-081>083-102200-
SOUTHEAST LOWER MICHIGAN

CITY           SKY/WX    TMP DP  RH WIND       PRES   REMARKS
ADRIAN         CLOUDY    26  16  65 W10       30.43R WCI  16
ALMA           CLOUDY    26  11  53 SW14G21   30.38S WCI  14
ANN ARBOR      CLOUDY    25  18  74 SW13      30.40R WCI  14
BAD AXE        LGT SNOW  23  18  81 W7        30.36R WCI  14
DETROIT CITY   MOCLDY    28  15  58 W14G21    30.41R WCI  17
DETROIT        LGT SNOW  28  16  60 W13       30.42R WCI  17
FLINT          CLOUDY    25  16  68 W10       30.39R WCI  15
GROSSE ILE     FLURRIES  28  17  62 W8G17     30.41R WCI  20
HILLSDALE      CLOUDY    23  16  74 W10       30.38S WCI  12
HOWELL         LGT SNOW  25  19  80 W8        30.38R WCI  16

CITY           SKY/WX    TMP DP  RH WIND       PRES   REMARKS
JACKSON        MOCLDY    23  16  74 W13       30.39R WCI  11
LANSING        CLOUDY    24  17  74 W7        30.39F WCI  16
MASON          LGT SNOW  24  21  87 SW7       30.38S WCI  16
MONROE         CLOUDY    28  18  65 W13       30.42R WCI  18
MT. CLEMENS    FLURRIES  29  16  60 SW15      30.37R WCI  17
PONTIAC        LGT SNOW  24  20  84 W9        30.37R WCI  14
PORT HOPE        N/A     25  11  55 W8        30.34R WCI  16
PORT HURON     CLOUDY    27  19  74 SW6       30.39R WCI  20
TRI CITIES     CLOUDY    25  14  63 W9        30.38R WCI  15
YPSILANTI      CLOUDY    28  17  63 SW15      30.42R WCI  16
$$
MIZ043>046-050>051-056>058-064>065-071>073-077>080-102200-
SOUTHWEST LOWER MICHIGAN

CITY           SKY/WX    TMP DP  RH WIND       PRES   REMARKS
BATTLE CREEK   LGT SNOW  23  20  88 SW10      30.39F FOG     WCI  12
BENTON HARBOR  CLOUDY    27  16  63 W9        30.42S WCI  18
BIG RAPIDS     FLURRIES  21  12  67 W6        30.35F WCI  13
COLDWATER      CLOUDY    24  17  73 W9        30.41S WCI  15
HOLLAND        CLOUDY    26  15  63 W10       30.40F WCI  16
GRAND RAPIDS   LGT SNOW  23  18  81 W7        30.39F WCI  15
KALAMAZOO      LGT SNOW  23  17  78 SW10      30.41S WCI  12
MARSHALL       LGT SNOW  24  19  82 SW9       30.39F WCI  14
MOUNT PLEASANT CLOUDY    24  11  57 W12G17    30.36S WCI  13
MUSKEGON       FLURRIES  25  13  60 W10       30.40F WCI  15
STURGIS        CLOUDY    24  16  70 W7        30.41S WCI  16
$$
MIZ016>042-102200-
NORTHERN LOWER MICHIGAN

CITY           SKY/WX    TMP DP  RH WIND       PRES   REMARKS
ALPENA         PTCLDY    22   8  55 W12G18    30.33R WCI  10
BEAVER ISLAND  CLOUDY    23  14  68 W10G17    30.31S WCI  12
BELLAIRE       CLOUDY    21  14  75 SW5       30.36S WCI  14
CADILLAC       LGT SNOW  19  14  79 W6        30.30S WCI  11
CHARLEVOIX     FLURRIES  23  14  70 W9        30.35R WCI  13
GAYLORD        CLOUDY    18   9  68 W14       30.28S WCI   4
HOUGHTON LAKE  LGT SNOW  19  13  77 W6        30.32S WCI  11
MANISTEE       FLURRIES  21  12  68 SW5       30.36F WCI  15
OSCODA         CLOUDY    26  10  51 W10       30.33R WCI  16
PELLSTON       LGT SNOW  21  14  74 SW6       30.30S WCI  13
TRAVERSE CITY  CLOUDY    20  13  74 NW7       30.36S WCI  11
LUDINGTON      FLURRIES  21  13  71 W5        30.37F WCI  15
$$
MIZ007>008-015-102200-
EASTERN UPPER MICHIGAN

CITY           SKY/WX    TMP DP  RH WIND       PRES   REMARKS
KINROSS        FLURRIES  21  14  74 W6        30.26S WCI  13
MACKINAC ISLAN SNOW      21  18  88 W15G21    30.27S VSB 1/4 WCI   8
NEWBERRY       PTCLDY    18  13  81 W6        30.27R WCI  10
S. S. MARIE    CLOUDY    22  12  65 S5        30.26S WCI  16
$$
MIZ004>006-011>014-085-102200-
CENTRAL UPPER MICHIGAN

CITY           SKY/WX    TMP DP  RH WIND       PRES   REMARKS
MANISTIQUE     PTCLDY    21  10  63 W9        30.31S WCI  11
ESCANABA       CLEAR     20   4  50 W8        30.33F WCI  10
MENOMINEE      CLEAR     18   1  47 NW3       30.36S
SAWYER-GWINN   CLEAR     16   5  62 NW9       30.28S WCI   4
$$
MIZ001>003-009>011-084-102200-
WESTERN UPPER MICHIGAN

CITY           SKY/WX    TMP DP  RH WIND       PRES   REMARKS
IRON MOUNTAIN  CLEAR     16  -1  47 NW5       30.28F WCI   9
HOUGHTON       LGT SNOW  14   8  77 W6        30.29S VSB 1   WCI   5
COPPER HARBOR    N/A     16   6  65 CALM      30.33R
IRONWOOD       CLEAR     12  -2  53 CALM      30.32F
$$

ABBREVIATIONS USED IN REMARKS
   TC - TEMPERATURE IN CELSIUS
  WCI - WIND CHILL INDEX
   HX - HEAT INDEX
  VSB - VISIBILITY




USA.gov is the U.S. government's official web portal to all federal, state and local government web resources and services.